UAE724 HAAB-OMDB

Flight info

Callsign UAE724
Flight time N/A
Altitude 35000
Route MIWAS3A MIWAS UT667 DWA UW885 HARGA UB404 DEMGO B404 RIGAM B400 DAXAM Y414 DEDSO R401 PEDOG Q308 KIPOK Q568 IMPED
Aircraft B77W/H-SDE1E2E3FGHIJ2J3J4J5M1RWXY/LB1D1

Departure

Time 2026-05-06 09:49
Airport Addis Ababa Bole International Airport (HAAB)

Arrival

Time N/A
Airport Dubai International Airport (OMDB)
Time Latitude Longitude Altitude Speed Heading
2026-05-06 09:27 8.98292 38.79847 7625 ft 0 kts 345°
2026-05-06 09:40 8.98250 38.79869 7630 ft 4 kts 305°
2026-05-06 09:41 8.98240 38.79892 7632 ft 4 kts 265°
2026-05-06 09:41 8.98242 38.79904 7631 ft 0 kts 253°
2026-05-06 09:43 8.98241 38.79901 7632 ft 3 kts 253°
2026-05-06 09:43 8.98218 38.79821 7625 ft 19 kts 253°
2026-05-06 09:44 8.98174 38.79689 7625 ft 20 kts 237°
2026-05-06 09:44 8.98096 38.79577 7625 ft 20 kts 251°
2026-05-06 09:44 8.98057 38.79446 7625 ft 20 kts 253°
2026-05-06 09:44 8.98017 38.79313 7625 ft 20 kts 253°
2026-05-06 09:45 8.97978 38.79179 7625 ft 20 kts 254°
2026-05-06 09:45 8.97941 38.79045 7625 ft 20 kts 254°
2026-05-06 09:45 8.97901 38.78912 7626 ft 20 kts 253°
2026-05-06 09:45 8.97861 38.78779 7626 ft 20 kts 246°
2026-05-06 09:46 8.97782 38.78702 7626 ft 15 kts 255°
2026-05-06 09:46 8.97754 38.78599 7626 ft 15 kts 254°
2026-05-06 09:46 8.97771 38.78502 7626 ft 15 kts 319°
2026-05-06 09:46 8.97793 38.78405 7626 ft 15 kts 253°
2026-05-06 09:47 8.97763 38.78302 7626 ft 15 kts 253°
2026-05-06 09:47 8.97712 38.78213 7626 ft 15 kts 210°
2026-05-06 09:47 8.97608 38.78210 7626 ft 15 kts 167°
2026-05-06 09:47 8.97505 38.78234 7626 ft 15 kts 166°
2026-05-06 09:48 8.97420 38.78288 7627 ft 15 kts 108°
2026-05-06 09:48 8.97441 38.78393 7627 ft 18 kts 71°
2026-05-06 09:48 8.97524 38.78676 7627 ft 75 kts 73°
2026-05-06 09:48 8.97740 38.79411 7623 ft 141 kts 73°
2026-05-06 09:49 8.98074 38.80539 7638 ft 190 kts 74°
2026-05-06 09:49 8.98469 38.81843 8066 ft 199 kts 71°
2026-05-06 09:49 8.98876 38.83164 8803 ft 189 kts 75°
2026-05-06 09:49 8.99241 38.84421 9375 ft 194 kts 75°
2026-05-06 09:50 8.99628 38.85826 9524 ft 219 kts 77°
2026-05-06 09:50 9.00048 38.87401 9694 ft 249 kts 75°
2026-05-06 09:50 9.00526 38.89170 10035 ft 269 kts 76°
2026-05-06 09:50 9.01045 38.91057 10409 ft 292 kts 74°
2026-05-06 09:51 9.01625 38.93127 10559 ft 321 kts 74°
2026-05-06 09:51 9.02260 38.95380 10807 ft 345 kts 74°
2026-05-06 09:51 9.02926 38.97750 11434 ft 355 kts 73°
2026-05-06 09:51 9.03614 39.00180 12164 ft 362 kts 73°
2026-05-06 09:52 9.04314 39.02647 13011 ft 368 kts 73°
2026-05-06 09:52 9.05015 39.05150 13847 ft 373 kts 74°
2026-05-06 09:52 9.05690 39.07718 14520 ft 381 kts 75°
2026-05-06 09:52 9.06352 39.10317 15344 ft 382 kts 75°
2026-05-06 09:53 9.07014 39.12941 16040 ft 389 kts 75°
2026-05-06 09:53 9.07684 39.15594 16874 ft 390 kts 75°
2026-05-06 09:53 9.08366 39.18283 17519 ft 399 kts 75°
2026-05-06 09:53 9.09061 39.21016 18312 ft 403 kts 75°
2026-05-06 09:54 9.09762 39.23769 19025 ft 406 kts 75°
2026-05-06 09:54 9.10466 39.26538 19771 ft 408 kts 75°
2026-05-06 09:54 9.11179 39.29337 20424 ft 413 kts 75°
2026-05-06 09:54 9.11903 39.32168 20987 ft 420 kts 75°
2026-05-06 09:55 9.12639 39.35051 21651 ft 423 kts 75°
2026-05-06 09:55 9.13374 39.37934 22366 ft 426 kts 75°
2026-05-06 09:55 9.14118 39.40850 22976 ft 429 kts 75°
2026-05-06 09:55 9.14869 39.43795 23531 ft 435 kts 75°
2026-05-06 09:56 9.15629 39.46782 23982 ft 440 kts 75°
2026-05-06 09:56 9.16137 39.48776 24319 ft 443 kts 75°
2026-05-06 09:56 9.16911 39.51818 24724 ft 449 kts 75°
2026-05-06 09:56 9.17949 39.55896 25414 ft 452 kts 75°
2026-05-06 09:57 9.18736 39.58990 25855 ft 456 kts 75°
2026-05-06 09:57 9.19529 39.62110 26323 ft 460 kts 75°
2026-05-06 09:57 9.20069 39.64234 26522 ft 465 kts 75°
2026-05-06 09:57 9.20882 39.67431 26821 ft 472 kts 75°
2026-05-06 09:58 9.21700 39.70655 27296 ft 474 kts 75°
2026-05-06 09:58 9.22525 39.73904 27708 ft 478 kts 75°
2026-05-06 09:58 9.23354 39.77171 28138 ft 481 kts 75°
2026-05-06 09:58 9.24191 39.80469 28494 ft 486 kts 75°
2026-05-06 09:59 9.25031 39.83785 28968 ft 487 kts 75°
2026-05-06 09:59 9.25878 39.87123 29280 ft 492 kts 75°
2026-05-06 09:59 9.26731 39.90487 29649 ft 495 kts 75°
2026-05-06 09:59 9.27588 39.93870 30022 ft 497 kts 75°
2026-05-06 10:00 9.28432 39.97208 30452 ft 496 kts 75°
2026-05-06 10:00 9.29288 40.00589 30850 ft 496 kts 75°
2026-05-06 10:00 9.30432 40.05111 31401 ft 496 kts 75°
2026-05-06 10:00 9.30998 40.07352 31687 ft 495 kts 75°
2026-05-06 10:01 9.31851 40.10728 32114 ft 495 kts 75°
2026-05-06 10:01 9.32703 40.14102 32531 ft 495 kts 75°
2026-05-06 10:01 9.33557 40.17483 32952 ft 495 kts 75°